Wind_Speed
4 4 4 4 4 4 4 4 4 5 5 6 6 6 6 6 6 7 7 8 8 8 8 8 8 7 8 8 8 8 8 8 9 9 9 10 10 9 9 9 9 8 8
3 3 4 4 4 4 4 4 5 5 5 5 6 6 7 7 7 7 8 8 8 9 9 8 8 8 8 9 9 9 9 9 10 10 11 11 10 10 10 10 10 10 10
3 3 4 4 4 4 5 5 5 5 6 6 6 7 7 8 8 7 7 8 8 8 8 8 8 7 8 8 9 10 10 10 11 11 11 10 10 10 10 10 11 10 10
3 3 4 4 4 5 5 6 6 5 6 6 7 7 8 8 8 8 7 8 9 8 8 8 8 8 8 8 9 10 10 11 11 11 10 11 11 10 10 11 11 11 11
4 3 4 4 4 4 5 6 5 5 5 5 6 7 7 7 8 8 8 8 9 9 9 8 8 8 9 9 9 9 10 11 12 12 11 11 11 11 11 11 12 12 11
3 3 3 3 3 4 4 4 4 4 5 5 6 6 7 8 8 8 9 8 9 9 9 9 9 9 9 10 10 10 11 11 12 12 12 12 12 11 12 13 13 13 13
2 3 3 3 3 3 3 3 3 3 4 5 5 6 7 8 8 8 9 9 8 9 10 10 10 10 10 10 11 10 10 11 11 12 12 12 12 12 13 13 13 13 13
2 2 2 3 3 3 3 2 2 3 3 3 4 5 6 7 7 8 8 9 9 9 9 10 10 10 10 10 10 9 9 10 10 11 11 12 12 13 13 14 13 14 14
3 2 2 2 2 2 1 1 2 2 3 4 4 5 5 6 6 6 7 7 8 8 8 9 9 9 10 10 10 9 9 10 11 12 11 12 12 13 13 14 15 15 15
3 3 2 2 2 1 1 2 2 2 3 3 4 4 5 5 5 6 6 6 6 7 7 8 9 9 9 10 10 11 11 10 10 11 12 12 13 13 13 14 14 15 15
3 3 3 2 1 2 2 2 2 3 3 3 3 3 4 4 4 5 5 6 6 7 7 8 8 8 9 9 9 10 10 10 10 10 12 12 13 13 13 13 14 15 15
3 2 2 1 1 2 2 3 3 3 3 3 3 3 3 4 4 4 5 6 7 7 7 7 7 7 8 9 9 10 10 10 11 12 12 12 12 13 13 13 14 14 15
2 1 1 1 1 2 2 2 3 3 3 3 3 3 3 4 4 5 5 6 6 6 6 7 7 8 8 9 10 10 10 9 10 11 11 12 12 13 13 14 13 14 14
1 1 1 2 2 3 3 3 3 3 3 3 3 3 3 3 4 5 5 6 6 7 7 7 7 8 8 9 9 9 9 9 9 10 11 12 11 11 12 12 13 13 13
1 1 2 2 2 3 3 3 4 3 4 4 3 4 4 4 5 5 6 6 7 7 7 7 8 8 9 9 8 9 9 9 9 10 10 11 11 12 12 13 14 14 13
1 1 2 2 3 3 3 3 4 4 4 4 4 5 5 5 6 6 6 6 7 7 7 8 8 8 8 8 8 9 9 9 9 10 10 11 11 11 12 12 13 14 14
1 1 2 2 3 3 3 4 4 5 5 5 5 6 6 6 6 7 7 7 7 8 8 8 8 8 8 8 9 9 9 10 10 10 10 10 11 11 12 12 13 14 14
2 2 2 3 3 4 4 4 5 5 6 6 6 7 7 8 8 8 8 8 8 9 9 9 8 8 9 9 9 10 10 10 10 11 11 11 11 11 11 12 13 14 14
3 3 3 4 4 5 5 5 6 6 7 7 8 8 9 9 9 9 9 9 9 10 10 10 9 9 9 9 9 10 11 11 11 11 11 11 12 12 12 12 13 13 14
4 5 5 5 5 6 6 6 7 8 8 9 9 9 10 10 10 10 11 11 11 11 11 11 11 10 10 10 11 11 11 12 12 12 12 12 12 12 13 13 13 13 14
6 6 6 5 6 6 7 8 8 9 9 10 10 11 11 11 12 12 12 12 12 12 12 11 11 11 11 11 12 12 13 13 13 13 13 13 13 13 13 14 14 14 15
6 6 7 7 7 8 8 9 9 10 10 10 11 11 12 12 13 12 12 12 12 12 12 12 11 11 11 12 12 13 13 14 14 14 14 14 14 14 14 14 15 15 15
6 7 7 8 8 9 10 10 10 11 12 12 12 13 13 13 13 13 13 14 14 13 13 12 12 12 12 13 13 13 14 14 14 14 14 15 15 14 15 15 15 15 15
8 8 9 10 10 10 11 11 11 12 12 13 13 13 13 14 14 14 14 15 15 14 14 13 13 13 14 14 14 14 14 14 14 15 15 15 14 15 15 15 15 15 15
9 9 9 10 11 11 12 12 12 13 13 13 14 14 14 15 15 15 15 16 16 16 15 15 15 15 15 15 15 15 14 14 15 15 15 15 15 15 15 15 15 15 15
11 11 11 11 12 13 13 13 13 13 14 14 14 15 15 16 16 16 16 17 16 16 16 16 16 16 16 16 15 15 15 15 15 15 15 15 15 15 15 15 15 15 16
Wind_Direction
290 280 266 265 267 267 272 271 269 268 260 256 251 246 247 247 241 239 232 229 232 228 231 234 235 237 233 229 226 230 228 222 217 217 212 209 213 216 220 218 217 216 212
295 283 274 272 273 272 270 266 265 266 262 257 251 246 251 253 250 245 237 232 234 233 233 233 234 240 237 233 233 236 233 231 228 228 224 220 222 223 224 224 223 225 222
304 295 285 281 277 273 267 265 274 267 262 258 256 252 250 250 250 247 241 237 236 239 238 234 237 239 238 237 237 237 236 235 236 237 235 232 231 231 230 227 228 230 228
312 305 294 285 280 276 271 271 271 267 267 261 259 255 251 249 249 248 242 240 239 242 243 241 243 242 240 240 243 242 238 238 236 236 235 236 236 237 233 233 234 232 232
321 309 298 292 286 282 275 270 264 265 262 262 259 256 251 249 250 250 247 245 243 245 245 242 243 247 245 244 247 246 243 242 237 235 235 238 239 239 237 237 235 235 237
334 326 308 301 298 291 279 269 266 264 258 258 260 258 252 250 251 251 251 246 245 245 247 245 242 244 247 251 254 251 245 239 234 235 237 241 244 243 241 239 239 239 240
340 336 327 320 303 292 282 277 280 270 267 268 262 254 251 256 254 258 254 248 250 250 249 250 248 249 251 252 254 251 240 233 235 234 237 240 242 244 244 241 241 242 243
330 325 326 330 319 296 285 287 285 281 274 270 265 258 257 258 260 260 259 254 254 257 261 257 255 253 251 248 246 243 237 234 239 240 240 240 244 248 247 244 244 246 246
321 313 309 315 312 303 303 312 301 290 277 275 271 266 262 260 257 257 258 256 259 264 266 262 256 253 251 249 243 241 243 245 247 245 245 245 247 248 247 245 246 247 248
315 315 301 304 306 320 324 326 314 308 295 284 278 275 269 267 259 257 258 258 262 267 267 261 255 251 249 250 247 248 250 248 248 248 247 247 246 245 245 245 246 247 248
295 303 298 291 296 306 307 320 318 306 307 305 291 284 281 272 267 263 261 261 260 263 263 262 263 261 257 255 253 254 251 251 253 252 251 248 248 247 248 249 249 249 250
280 275 273 279 265 278 295 298 302 308 312 311 301 291 288 282 278 274 268 267 267 268 268 268 267 265 263 261 258 255 251 252 255 255 254 250 249 248 248 249 250 251 252
281 270 276 269 280 283 291 296 296 310 318 321 313 299 296 285 278 280 279 278 279 280 276 273 271 267 263 259 257 257 256 256 259 255 253 251 251 249 249 249 251 251 249
246 283 320 345 333 326 320 316 321 336 338 334 331 320 306 301 296 294 292 285 282 278 277 276 274 271 270 266 262 260 259 260 259 259 257 253 253 254 253 255 255 255 251
233 277 305 324 321 322 328 330 331 333 324 318 312 300 297 299 298 294 293 292 288 285 283 278 276 276 274 270 267 263 264 265 261 258 258 257 255 257 257 255 254 253 252
346 299 310 318 311 309 318 325 327 322 317 317 313 303 299 298 298 297 296 297 293 290 287 282 277 272 268 264 262 262 265 265 265 266 262 261 260 259 258 257 255 256 255
357 321 313 315 314 314 318 320 320 322 322 320 314 309 304 299 299 297 294 293 289 290 290 285 275 269 267 265 263 263 263 262 264 265 265 264 265 264 262 260 258 257 257
323 319 312 317 317 317 319 314 312 316 317 313 307 305 303 300 298 297 294 292 289 289 289 283 275 271 272 270 266 265 260 262 264 262 263 263 266 264 265 263 261 261 259
292 303 308 308 310 314 315 315 314 314 315 311 305 302 302 301 299 298 297 295 291 289 288 283 280 279 276 274 271 268 264 265 266 263 263 264 264 263 264 264 263 265 265
278 285 297 300 305 309 309 312 314 312 313 311 308 305 303 301 298 297 296 295 293 290 287 282 278 277 275 274 271 269 268 268 268 268 266 264 264 265 266 265 265 266 266
280 280 287 296 305 308 310 310 313 313 313 312 311 307 303 302 298 296 296 292 290 289 286 282 278 277 275 273 271 271 270 270 271 270 267 265 265 266 267 267 267 267 267
278 281 284 288 297 306 309 308 310 311 309 310 309 308 304 303 301 297 296 293 290 288 285 282 279 278 278 277 275 273 271 268 269 269 269 266 267 267 268 267 267 268 268
274 280 284 288 292 297 301 303 305 306 306 306 307 307 304 302 301 298 294 292 290 286 283 282 278 276 278 279 278 274 272 270 270 269 268 267 267 268 268 266 266 266 267
280 279 282 284 285 291 296 299 299 299 301 303 304 303 300 299 298 296 293 291 290 286 282 279 279 277 278 279 278 273 271 270 269 269 268 268 268 268 268 269 268 268 269
281 280 281 287 288 291 293 294 294 296 297 299 299 300 299 299 298 296 294 291 288 284 282 278 276 275 276 276 275 272 269 268 269 269 268 267 266 267 268 269 269 270 270
282 283 283 287 290 292 292 292 290 291 294 295 297 297 298 298 296 294 292 290 286 284 282 279 275 275 276 275 273 270 270 269 268 268 268 268 267 268 268 270 270 270 270
Height
5867 5866 5866 5866 5866 5867 5867 5867 5867 5867 5867 5867 5867 5867 5868 5868 5868 5868 5869 5869 5869 5870 5870 5870 5871 5870 5871 5871 5872 5872 5873 5873 5874 5874 5875 5875 5876 5877 5877 5878 5879 5879 5880
5866 5865 5865 5865 5865 5866 5866 5866 5866 5866 5866 5866 5866 5866 5867 5867 5867 5868 5868 5868 5868 5869 5869 5869 5870 5870 5870 5870 5870 5871 5871 5872 5873 5873 5874 5874 5875 5876 5876 5877 5878 5878 5879
5865 5865 5864 5864 5864 5865 5865 5865 5865 5865 5865 5865 5865 5865 5866 5866 5866 5867 5867 5867 5867 5867 5867 5868 5868 5868 5868 5868 5868 5869 5870 5870 5871 5872 5873 5873 5874 5874 5875 5876 5876 5877 5878
5864 5864 5864 5863 5863 5863 5864 5864 5864 5863 5864 5864 5864 5864 5865 5865 5865 5865 5866 5866 5866 5866 5866 5866 5866 5867 5867 5867 5867 5868 5868 5869 5869 5870 5871 5871 5872 5873 5873 5874 5875 5876 5876
5863 5863 5863 5862 5862 5862 5862 5862 5862 5862 5862 5862 5863 5863 5863 5863 5864 5864 5864 5864 5865 5865 5865 5865 5865 5865 5865 5865 5866 5866 5866 5866 5867 5868 5869 5869 5870 5871 5872 5873 5873 5874 5875
5862 5862 5862 5862 5861 5861 5861 5861 5861 5861 5861 5861 5861 5862 5862 5862 5862 5863 5863 5863 5863 5863 5863 5863 5864 5864 5864 5864 5864 5863 5863 5864 5865 5866 5867 5867 5868 5869 5870 5871 5871 5872 5873
5862 5861 5861 5861 5860 5860 5860 5860 5860 5860 5860 5860 5860 5860 5860 5861 5861 5861 5861 5861 5861 5861 5862 5862 5862 5862 5862 5862 5861 5861 5860 5861 5862 5864 5864 5865 5866 5867 5868 5868 5869 5870 5870
5861 5861 5860 5860 5859 5859 5859 5859 5859 5859 5858 5859 5859 5859 5859 5859 5859 5859 5859 5859 5859 5859 5859 5859 5859 5859 5860 5860 5859 5859 5858 5859 5860 5861 5862 5863 5864 5865 5865 5865 5866 5867 5868
5861 5860 5860 5859 5859 5858 5858 5858 5858 5858 5858 5857 5857 5857 5857 5857 5857 5857 5857 5858 5858 5857 5857 5857 5857 5857 5857 5857 5858 5858 5858 5858 5859 5860 5860 5861 5861 5862 5862 5863 5863 5864 5865
5860 5859 5859 5859 5858 5858 5858 5857 5857 5857 5857 5856 5856 5856 5856 5856 5856 5856 5856 5856 5856 5856 5855 5855 5855 5855 5855 5855 5856 5856 5856 5857 5857 5857 5858 5858 5859 5859 5859 5860 5861 5861 5862
5859 5859 5858 5858 5857 5857 5857 5857 5856 5856 5856 5855 5855 5855 5854 5854 5854 5854 5854 5854 5854 5854 5854 5854 5853 5853 5853 5854 5854 5854 5855 5855 5855 5855 5855 5856 5856 5856 5856 5857 5858 5858 5859
5858 5858 5858 5857 5857 5856 5856 5856 5855 5855 5854 5854 5854 5853 5853 5853 5853 5853 5853 5853 5852 5852 5852 5852 5852 5852 5852 5852 5852 5852 5852 5852 5853 5853 5853 5853 5853 5854 5854 5854 5855 5855 5856
5857 5857 5857 5856 5856 5856 5855 5855 5854 5854 5853 5853 5852 5852 5852 5852 5851 5851 5851 5851 5850 5850 5850 5850 5850 5850 5850 5850 5850 5850 5850 5850 5850 5850 5850 5851 5851 5851 5851 5852 5852 5852 5853
5857 5856 5856 5856 5855 5855 5854 5854 5853 5853 5852 5852 5851 5851 5851 5850 5850 5850 5849 5849 5849 5848 5848 5848 5848 5848 5848 5847 5847 5847 5848 5848 5848 5848 5848 5848 5848 5848 5849 5849 5849 5849 5850
5856 5856 5855 5855 5854 5854 5853 5853 5852 5852 5851 5851 5850 5850 5849 5849 5849 5848 5847 5847 5847 5847 5846 5846 5846 5845 5845 5845 5845 5845 5845 5845 5845 5845 5845 5845 5845 5845 5845 5846 5846 5846 5847
5855 5855 5855 5854 5854 5853 5852 5852 5851 5851 5850 5849 5849 5848 5848 5847 5847 5846 5846 5845 5845 5845 5844 5844 5844 5843 5843 5843 5843 5843 5843 5843 5843 5843 5843 5843 5843 5843 5843 5843 5843 5843 5844
5855 5854 5854 5853 5853 5852 5852 5851 5850 5849 5849 5848 5847 5846 5846 5845 5845 5844 5844 5843 5843 5842 5842 5842 5841 5841 5841 5841 5841 5841 5840 5841 5841 5840 5840 5840 5840 5840 5840 5840 5840 5840 5840
5854 5853 5853 5852 5852 5851 5850 5849 5849 5848 5847 5846 5845 5845 5844 5843 5843 5842 5842 5841 5841 5840 5840 5839 5839 5839 5839 5838 5838 5838 5838 5838 5838 5838 5838 5838 5837 5837 5837 5837 5837 5837 5837
5852 5852 5852 5851 5850 5849 5849 5848 5847 5846 5845 5844 5843 5842 5842 5841 5840 5840 5839 5839 5838 5837 5837 5837 5836 5836 5836 5836 5835 5835 5835 5835 5835 5835 5835 5835 5834 5834 5834 5834 5834 5834 5834
5851 5851 5850 5849 5849 5848 5847 5846 5845 5844 5843 5842 5841 5840 5839 5838 5838 5837 5837 5836 5835 5835 5834 5834 5833 5833 5833 5833 5833 5832 5832 5832 5832 5832 5832 5831 5831 5831 5830 5830 5830 5830 5830
5849 5849 5848 5848 5847 5846 5845 5844 5843 5842 5841 5840 5839 5837 5836 5836 5835 5834 5833 5833 5832 5831 5831 5831 5830 5830 5830 5830 5829 5829 5829 5829 5828 5828 5828 5828 5828 5827 5827 5827 5826 5826 5826
5847 5847 5847 5846 5845 5844 5843 5842 5841 5840 5839 5837 5836 5835 5834 5832 5832 5831 5830 5829 5829 5828 5827 5827 5827 5826 5826 5826 5826 5825 5825 5826 5825 5825 5824 5824 5824 5824 5823 5823 5823 5822 5822
5845 5845 5844 5844 5843 5842 5841 5840 5839 5838 5836 5835 5833 5832 5830 5829 5828 5827 5826 5825 5825 5824 5824 5823 5823 5823 5822 5822 5822 5822 5821 5821 5821 5821 5820 5820 5820 5820 5819 5819 5819 5818 5818
5843 5843 5842 5842 5841 5840 5838 5837 5836 5835 5833 5832 5830 5829 5827 5826 5825 5823 5822 5821 5820 5820 5820 5819 5819 5819 5819 5818 5818 5818 5818 5817 5817 5817 5816 5816 5816 5816 5815 5815 5815 5814 5814
5840 5840 5839 5839 5838 5837 5835 5834 5833 5832 5830 5829 5827 5826 5824 5823 5821 5820 5818 5817 5816 5815 5815 5815 5814 5814 5814 5814 5813 5813 5813 5813 5812 5812 5812 5812 5812 5811 5811 5811 5811 5810 5810
5837 5837 5836 5836 5835 5833 5832 5831 5830 5828 5827 5825 5824 5822 5821 5819 5817 5815 5814 5813 5812 5811 5810 5810 5809 5809 5809 5809 5809 5809 5808 5808 5808 5808 5807 5807 5807 5807 5807 5807 5807 5806 5806